Location: Unspecified
(42.3650°N, 71.1030°W)
Time: 15:32:01
(UTC+00:00)

S-56A Canister/Altair - Pass Details

Date: 26 June 2024
Orbit: 638 x 2487 km, 38.9° (Epoch: 20 July)

Event Time Altitude Azimuth Distance (km) Brightness Sun altitude
Rises 05:40:21 0° 282° (WNW) 4,991 11.7 -23.2°
Reaches altitude 10° 05:43:25 10° 277° (W) 4,222 11.2 -23.0°
Maximum altitude 05:54:46 50° 207° (SSW) 2,747 9.8 -22.5°
Drops below altitude 10° 06:08:48 10° 139° (SE) 5,141 11.4 -21.7°
Sets 06:12:59 0° 134° (SE) 6,125 11.9 -21.4°
